Time,TemperatureF,DewpointF,PressureIn,WindDirection,WindDirectionDegrees,WindSpeedMPH,WindSpeedGustMPH,Humidity,HourlyPrecipIn,Conditions,Clouds,dailyrainin,SoftwareType,DateUTC
2013-07-02 00:00:00,70.6,69.1,21.55,West,265,1.2,0.0,95,0.00,RA,,0.00,WeatherDisplay:10.37,2013-07-02 04:00:00,
2013-07-02 00:01:00,70.7,69.2,21.55,West,265,0.0,0.0,95,0.00,RA,,0.00,WeatherDisplay:10.37,2013-07-02 04:01:00,
2013-07-02 00:06:00,70.7,69.2,21.55,West,265,0.0,0.0,95,0.00,RA,,0.00,WeatherDisplay:10.37,2013-07-02 04:06:00,
2013-07-02 00:11:00,70.4,68.9,21.55,NNE,33,3.5,3.5,95,0.02,RA,,0.02,WeatherDisplay:10.37,2013-07-02 04:11:00,
2013-07-02 00:16:00,70.3,68.8,21.55,NE,34,0.0,0.0,95,0.03,RA,,0.03,WeatherDisplay:10.37,2013-07-02 04:16:00,
2013-07-02 00:21:00,70.3,68.8,21.55,NE,34,0.0,0.0,95,0.03,RA,,0.03,WeatherDisplay:10.37,2013-07-02 04:21:00,
2013-07-02 00:26:00,70.2,68.7,21.55,NNE,33,0.0,0.0,95,0.03,,,0.03,WeatherDisplay:10.37,2013-07-02 04:26:00,
2013-07-02 00:31:00,70.3,68.8,21.55,NE,34,0.0,0.0,95,0.03,CLR,,0.03,WeatherDisplay:10.37,2013-07-02 04:31:00,
2013-07-02 00:36:00,70.3,68.8,21.55,NNE,30,0.0,0.0,95,0.03,CLR,,0.03,WeatherDisplay:10.37,2013-07-02 04:36:00,
2013-07-02 00:41:00,70.3,68.8,21.55,NW,317,2.3,2.3,95,0.03,CLR,,0.03,WeatherDisplay:10.37,2013-07-02 04:41:00,
2013-07-02 00:46:00,70.2,68.7,21.55,NW,317,0.0,0.0,95,0.04,RA,,0.04,WeatherDisplay:10.37,2013-07-02 04:46:00,
2013-07-02 00:51:00,70.1,68.6,21.55,WSW,249,2.3,2.3,95,0.04,RA,,0.05,WeatherDisplay:10.37,2013-07-02 04:51:00,
2013-07-02 00:56:00,70.0,68.5,21.55,WSW,248,2.3,0.0,95,0.06,RA,,0.06,WeatherDisplay:10.37,2013-07-02 04:56:00,
2013-07-02 01:01:00,69.9,68.4,21.55,WSW,248,3.5,3.5,95,0.08,RA,,0.09,WeatherDisplay:10.37,2013-07-02 05:01:00,
2013-07-02 01:06:00,69.9,68.4,21.55,WSW,248,3.5,3.5,95,0.12,RA,,0.13,WeatherDisplay:10.37,2013-07-02 05:06:00,
2013-07-02 01:11:00,69.8,68.3,21.55,WSW,248,0.0,0.0,95,0.14,RA,,0.16,WeatherDisplay:10.37,2013-07-02 05:11:00,
2013-07-02 01:16:00,69.6,68.1,21.55,West,267,3.5,3.5,95,0.17,RA,,0.20,WeatherDisplay:10.37,2013-07-02 05:16:00,
2013-07-02 01:21:00,69.4,67.9,21.55,West,268,0.0,0.0,95,0.24,RA,,0.28,WeatherDisplay:10.37,2013-07-02 05:21:00,
2013-07-02 01:26:00,69.1,67.6,21.55,West,268,0.0,0.0,95,0.37,RA,,0.41,WeatherDisplay:10.37,2013-07-02 05:26:00,
2013-07-02 01:32:00,68.9,67.7,21.55,West,268,0.0,0.0,96,0.38,RA,,0.41,WeatherDisplay:10.37,2013-07-02 05:32:00,
2013-07-02 01:37:00,68.8,67.3,21.55,West,266,0.0,0.0,95,0.44,RA,,0.47,WeatherDisplay:10.37,2013-07-02 05:37:00,
2013-07-02 01:42:00,68.7,67.5,21.55,West,265,0.0,0.0,96,0.45,RA,,0.47,WeatherDisplay:10.37,2013-07-02 05:42:00,
2013-07-02 01:47:00,68.6,67.4,21.55,West,266,0.0,0.0,96,0.45,RA,,0.48,WeatherDisplay:10.37,2013-07-02 05:47:00,
2013-07-02 01:52:00,68.6,67.4,21.55,West,265,2.3,2.3,96,0.45,RA,,0.49,WeatherDisplay:10.37,2013-07-02 05:52:00,
2013-07-02 01:57:00,68.6,67.4,21.55,West,266,0.0,0.0,96,0.45,RA,,0.50,WeatherDisplay:10.37,2013-07-02 05:57:00,
2013-07-02 02:02:00,68.6,67.4,21.55,West,266,0.0,0.0,96,0.42,RA,,0.50,WeatherDisplay:10.37,2013-07-02 06:02:00,
2013-07-02 02:07:00,68.5,67.3,21.55,West,266,0.0,0.0,96,0.37,,,0.50,WeatherDisplay:10.37,2013-07-02 06:07:00,
2013-07-02 02:12:00,68.5,67.3,21.55,West,266,0.0,0.0,96,0.34,CLR,,0.50,WeatherDisplay:10.37,2013-07-02 06:12:00,
2013-07-02 02:17:00,68.4,67.2,21.55,West,266,0.0,0.0,96,0.30,CLR,,0.50,WeatherDisplay:10.37,2013-07-02 06:17:00,
2013-07-02 02:22:00,68.4,67.2,21.55,West,265,0.0,0.0,96,0.21,CLR,,0.50,WeatherDisplay:10.37,2013-07-02 06:22:00,
2013-07-02 02:27:00,68.3,67.1,21.55,West,266,0.0,0.0,96,0.09,CLR,,0.50,WeatherDisplay:10.37,2013-07-02 06:27:00,
2013-07-02 02:32:00,68.3,67.1,21.55,West,265,0.0,0.0,96,0.09,CLR,,0.50,WeatherDisplay:10.37,2013-07-02 06:32:00,
2013-07-02 02:37:00,68.2,67.0,21.55,West,265,0.0,0.0,96,0.04,CLR,,0.50,WeatherDisplay:10.37,2013-07-02 06:37:00,
2013-07-02 02:42:00,68.2,67.0,21.55,West,266,0.0,0.0,96,0.03,CLR,,0.50,WeatherDisplay:10.37,2013-07-02 06:42:00,
2013-07-02 02:47:00,68.2,67.0,21.55,West,266,0.0,0.0,96,0.02,CLR,,0.50,WeatherDisplay:10.37,2013-07-02 06:47:00,
2013-07-02 02:52:00,68.1,66.9,21.55,West,266,0.0,0.0,96,0.01,CLR,,0.50,WeatherDisplay:10.37,2013-07-02 06:52:00,
2013-07-02 02:57:00,68.1,66.9,21.55,West,266,0.0,0.0,96,0.00,CLR,,0.50,WeatherDisplay:10.37,2013-07-02 06:57:00,
2013-07-02 03:02:00,68.1,66.9,21.55,West,265,0.0,0.0,96,0.00,CLR,,0.50,WeatherDisplay:10.37,2013-07-02 07:02:00,
2013-07-02 03:07:00,68.1,66.9,21.55,West,266,0.0,0.0,96,0.00,CLR,,0.50,WeatherDisplay:10.37,2013-07-02 07:07:00,
2013-07-02 03:12:00,68.1,66.9,21.55,West,266,0.0,0.0,96,0.00,CLR,,0.50,WeatherDisplay:10.37,2013-07-02 07:12:00,
2013-07-02 03:17:00,68.1,66.9,21.55,West,265,0.0,0.0,96,0.00,CLR,,0.50,WeatherDisplay:10.37,2013-07-02 07:17:00,
2013-07-02 03:22:00,68.1,66.9,21.55,West,265,0.0,0.0,96,0.00,CLR,,0.50,WeatherDisplay:10.37,2013-07-02 07:22:00,
2013-07-02 03:27:00,68.1,66.9,21.55,West,266,0.0,0.0,96,0.00,CLR,,0.50,WeatherDisplay:10.37,2013-07-02 07:27:00,
2013-07-02 03:32:00,68.1,66.9,21.55,West,265,0.0,0.0,96,0.00,CLR,,0.50,WeatherDisplay:10.37,2013-07-02 07:32:00,
2013-07-02 03:37:00,68.1,66.9,21.55,West,266,0.0,0.0,96,0.00,CLR,,0.50,WeatherDisplay:10.37,2013-07-02 07:37:00,
2013-07-02 03:42:00,68.0,66.8,21.55,West,266,0.0,0.0,96,0.00,CLR,,0.50,WeatherDisplay:10.37,2013-07-02 07:42:00,
2013-07-02 03:47:00,68.0,66.8,21.55,West,265,0.0,0.0,96,0.00,CLR,,0.50,WeatherDisplay:10.37,2013-07-02 07:47:00,
2013-07-02 03:52:00,68.0,66.8,21.55,West,266,0.0,0.0,96,0.00,CLR,,0.50,WeatherDisplay:10.37,2013-07-02 07:52:00,
2013-07-02 03:57:00,68.0,66.8,21.55,West,266,0.0,0.0,96,0.00,CLR,,0.50,WeatherDisplay:10.37,2013-07-02 07:57:00,
2013-07-02 04:02:00,68.0,66.8,21.55,West,266,0.0,0.0,96,0.00,CLR,,0.50,WeatherDisplay:10.37,2013-07-02 08:02:00,
2013-07-02 04:07:00,68.0,66.8,21.55,West,266,0.0,0.0,96,0.00,CLR,,0.50,WeatherDisplay:10.37,2013-07-02 08:07:00,
2013-07-02 04:12:00,68.0,66.8,21.55,West,266,0.0,0.0,96,0.00,CLR,,0.50,WeatherDisplay:10.37,2013-07-02 08:12:00,
2013-07-02 04:17:00,68.0,66.8,21.55,West,266,0.0,0.0,96,0.00,CLR,,0.50,WeatherDisplay:10.37,2013-07-02 08:17:00,
2013-07-02 04:22:00,68.0,66.8,21.55,West,266,0.0,0.0,96,0.00,CLR,,0.50,WeatherDisplay:10.37,2013-07-02 08:22:00,
2013-07-02 04:27:00,68.0,66.8,21.55,West,265,0.0,0.0,96,0.00,CLR,,0.50,WeatherDisplay:10.37,2013-07-02 08:27:00,
2013-07-02 04:32:00,68.0,66.8,21.55,West,266,0.0,0.0,96,0.00,CLR,,0.50,WeatherDisplay:10.37,2013-07-02 08:32:00,
2013-07-02 04:37:00,68.0,66.8,21.55,West,266,0.0,0.0,96,0.00,CLR,,0.50,WeatherDisplay:10.37,2013-07-02 08:37:00,
2013-07-02 04:42:00,68.0,66.8,21.55,West,265,0.0,0.0,96,0.00,CLR,,0.50,WeatherDisplay:10.37,2013-07-02 08:42:00,
2013-07-02 04:47:00,68.0,66.8,21.55,West,266,0.0,0.0,96,0.00,CLR,,0.50,WeatherDisplay:10.37,2013-07-02 08:47:00,
2013-07-02 04:52:00,68.0,66.8,21.55,West,265,0.0,0.0,96,0.00,CLR,,0.50,WeatherDisplay:10.37,2013-07-02 08:52:00,
2013-07-02 04:57:00,68.1,66.9,21.55,West,266,0.0,0.0,96,0.00,CLR,,0.50,WeatherDisplay:10.37,2013-07-02 08:57:00,
2013-07-02 05:02:00,68.1,66.9,21.55,West,266,0.0,0.0,96,0.00,CLR,,0.50,WeatherDisplay:10.37,2013-07-02 09:02:00,
2013-07-02 05:07:00,68.1,66.9,21.55,West,265,0.0,0.0,96,0.00,CLR,,0.50,WeatherDisplay:10.37,2013-07-02 09:07:00,
2013-07-02 05:12:00,68.0,66.8,21.55,West,266,0.0,0.0,96,0.00,CLR,,0.50,WeatherDisplay:10.37,2013-07-02 09:12:00,
2013-07-02 05:17:00,68.1,66.9,21.55,West,265,0.0,0.0,96,0.00,CLR,,0.50,WeatherDisplay:10.37,2013-07-02 09:17:00,
2013-07-02 05:22:00,68.0,66.8,21.55,West,266,0.0,0.0,96,0.00,CLR,,0.50,WeatherDisplay:10.37,2013-07-02 09:22:00,
2013-07-02 05:27:00,68.0,66.8,21.55,West,266,0.0,0.0,96,0.00,CLR,,0.50,WeatherDisplay:10.37,2013-07-02 09:27:00,
2013-07-02 05:33:00,68.0,66.8,21.55,West,266,0.0,0.0,96,0.00,CLR,,0.50,WeatherDisplay:10.37,2013-07-02 09:33:00,
2013-07-02 05:38:00,68.0,66.8,21.55,West,266,0.0,0.0,96,0.00,CLR,,0.50,WeatherDisplay:10.37,2013-07-02 09:38:00,
2013-07-02 05:43:00,68.0,66.8,21.55,West,265,0.0,0.0,96,0.00,CLR,,0.50,WeatherDisplay:10.37,2013-07-02 09:43:00,
2013-07-02 05:48:00,68.0,66.8,21.55,West,266,0.0,0.0,96,0.00,CLR,,0.50,WeatherDisplay:10.37,2013-07-02 09:48:00,
2013-07-02 05:53:00,67.9,66.7,21.55,West,265,0.0,0.0,96,0.00,CLR,,0.50,WeatherDisplay:10.37,2013-07-02 09:53:00,
2013-07-02 05:58:00,67.9,66.7,21.55,West,265,0.0,0.0,96,0.00,CLR,,0.50,WeatherDisplay:10.37,2013-07-02 09:58:00,
2013-07-02 06:03:00,67.9,66.7,21.55,West,266,0.0,0.0,96,0.00,CLR,,0.50,WeatherDisplay:10.37,2013-07-02 10:03:00,
2013-07-02 06:08:00,67.9,66.7,21.55,West,266,0.0,0.0,96,0.00,CLR,,0.50,WeatherDisplay:10.37,2013-07-02 10:08:00,
2013-07-02 06:13:00,67.8,66.6,21.55,West,266,0.0,0.0,96,0.00,CLR,,0.50,WeatherDisplay:10.37,2013-07-02 10:13:00,
2013-07-02 06:18:00,67.8,66.6,21.55,West,266,0.0,0.0,96,0.00,CLR,,0.50,WeatherDisplay:10.37,2013-07-02 10:18:00,
2013-07-02 06:23:00,67.7,66.5,21.55,West,266,0.0,0.0,96,0.00,CLR,,0.50,WeatherDisplay:10.37,2013-07-02 10:23:00,
2013-07-02 06:28:00,67.7,66.5,21.55,West,265,0.0,0.0,96,0.00,CLR,,0.50,WeatherDisplay:10.37,2013-07-02 10:28:00,
2013-07-02 06:33:00,67.7,66.5,21.55,West,265,0.0,0.0,96,0.00,CLR,,0.50,WeatherDisplay:10.37,2013-07-02 10:33:00,
2013-07-02 06:38:00,67.7,66.5,21.55,West,266,0.0,0.0,96,0.00,CLR,,0.50,WeatherDisplay:10.37,2013-07-02 10:38:00,
2013-07-02 06:43:00,67.7,66.5,21.55,West,266,0.0,0.0,96,0.00,CLR,,0.50,WeatherDisplay:10.37,2013-07-02 10:43:00,
2013-07-02 06:48:00,67.7,66.5,21.55,West,266,0.0,0.0,96,0.00,CLR,,0.50,WeatherDisplay:10.37,2013-07-02 10:48:00,
2013-07-02 06:53:00,67.7,66.5,21.55,West,266,0.0,0.0,96,0.00,CLR,,0.50,WeatherDisplay:10.37,2013-07-02 10:53:00,
2013-07-02 06:58:00,67.9,66.7,21.55,West,266,0.0,0.0,96,0.00,CLR,,0.50,WeatherDisplay:10.37,2013-07-02 10:58:00,
2013-07-02 07:03:00,67.9,66.7,21.55,West,266,0.0,0.0,96,0.00,CLR,,0.50,WeatherDisplay:10.37,2013-07-02 11:03:00,
2013-07-02 07:08:00,68.0,66.8,21.55,West,265,0.0,0.0,96,0.00,CLR,,0.50,WeatherDisplay:10.37,2013-07-02 11:08:00,
2013-07-02 07:13:00,68.0,66.8,21.55,West,266,0.0,0.0,96,0.00,CLR,,0.50,WeatherDisplay:10.37,2013-07-02 11:13:00,
2013-07-02 07:18:00,68.1,66.9,21.55,West,266,0.0,0.0,96,0.00,CLR,,0.50,WeatherDisplay:10.37,2013-07-02 11:18:00,
2013-07-02 07:23:00,68.0,66.8,21.55,West,266,0.0,0.0,96,0.00,CLR,,0.50,WeatherDisplay:10.37,2013-07-02 11:23:00,
2013-07-02 07:28:00,68.1,66.9,21.55,West,267,0.0,0.0,96,0.00,CLR,,0.50,WeatherDisplay:10.37,2013-07-02 11:28:00,
2013-07-02 07:33:00,68.2,67.0,21.55,West,266,0.0,0.0,96,0.00,CLR,,0.50,WeatherDisplay:10.37,2013-07-02 11:33:00,
2013-07-02 07:38:00,68.2,67.0,21.55,West,266,0.0,0.0,96,0.00,CLR,,0.50,WeatherDisplay:10.37,2013-07-02 11:38:00,
2013-07-02 07:43:00,68.3,67.1,21.55,West,265,0.0,0.0,96,0.00,CLR,,0.50,WeatherDisplay:10.37,2013-07-02 11:43:00,
2013-07-02 07:48:00,68.4,67.2,21.55,West,266,0.0,0.0,96,0.00,CLR,,0.50,WeatherDisplay:10.37,2013-07-02 11:48:00,
2013-07-02 07:53:00,68.5,67.3,21.55,West,265,0.0,0.0,96,0.00,CLR,,0.50,WeatherDisplay:10.37,2013-07-02 11:53:00,
2013-07-02 07:58:00,68.5,67.3,21.55,West,266,0.0,0.0,96,0.00,CLR,,0.50,WeatherDisplay:10.37,2013-07-02 11:58:00,
2013-07-02 08:03:00,68.5,67.3,21.55,West,265,0.0,0.0,96,0.00,CLR,,0.50,WeatherDisplay:10.37,2013-07-02 12:03:00,
2013-07-02 08:08:00,68.6,67.4,21.55,West,273,1.2,0.0,96,0.00,CLR,,0.50,WeatherDisplay:10.37,2013-07-02 12:08:00,
2013-07-02 08:13:00,69.0,67.8,21.55,West,273,0.0,0.0,96,0.00,CLR,,0.50,WeatherDisplay:10.37,2013-07-02 12:13:00,
2013-07-02 08:18:00,69.4,68.2,21.55,West,273,0.0,0.0,96,0.00,CLR,,0.50,WeatherDisplay:10.37,2013-07-02 12:18:00,
2013-07-02 08:23:00,69.6,68.4,21.55,West,273,0.0,0.0,96,0.00,CLR,,0.50,WeatherDisplay:10.37,2013-07-02 12:23:00,
2013-07-02 08:28:00,69.8,68.6,21.55,West,273,0.0,0.0,96,0.00,CLR,,0.50,WeatherDisplay:10.37,2013-07-02 12:28:00,
2013-07-02 08:33:00,69.9,68.7,21.55,West,273,0.0,0.0,96,0.00,CLR,,0.50,WeatherDisplay:10.37,2013-07-02 12:33:00,
2013-07-02 08:38:00,69.9,68.7,21.55,West,273,0.0,0.0,96,0.00,CLR,,0.50,WeatherDisplay:10.37,2013-07-02 12:38:00,
2013-07-02 08:43:00,70.2,69.0,21.55,West,273,0.0,0.0,96,0.00,CLR,,0.50,WeatherDisplay:10.37,2013-07-02 12:43:00,
2013-07-02 08:48:00,70.6,69.4,21.55,West,273,0.0,0.0,96,0.00,CLR,,0.50,WeatherDisplay:10.37,2013-07-02 12:48:00,
2013-07-02 08:53:00,70.9,69.7,21.55,West,273,0.0,0.0,96,0.00,CLR,,0.50,WeatherDisplay:10.37,2013-07-02 12:53:00,
2013-07-02 08:58:00,71.1,69.9,21.55,West,273,0.0,0.0,96,0.00,CLR,,0.50,WeatherDisplay:10.37,2013-07-02 12:58:00,
2013-07-02 09:03:00,71.3,70.1,21.55,West,273,0.0,0.0,96,0.00,CLR,,0.50,WeatherDisplay:10.37,2013-07-02 13:03:00,
2013-07-02 09:08:00,71.8,70.6,21.55,West,273,0.0,0.0,96,0.00,CLR,,0.50,WeatherDisplay:10.37,2013-07-02 13:08:00,
2013-07-02 09:13:00,72.1,70.9,21.55,West,273,0.0,0.0,96,0.00,CLR,,0.50,WeatherDisplay:10.37,2013-07-02 13:13:00,
2013-07-02 09:18:00,72.6,71.4,21.55,West,273,0.0,0.0,96,0.00,CLR,,0.50,WeatherDisplay:10.37,2013-07-02 13:18:00,
2013-07-02 09:23:00,73.3,71.8,21.55,West,273,0.0,0.0,95,0.00,CLR,,0.50,WeatherDisplay:10.37,2013-07-02 13:23:00,
2013-07-02 09:28:00,74.1,71.9,21.55,West,273,0.0,0.0,93,0.00,CLR,,0.50,WeatherDisplay:10.37,2013-07-02 13:28:00,
2013-07-02 09:33:00,74.7,71.6,21.55,West,273,2.3,2.3,90,0.00,CLR,,0.50,WeatherDisplay:10.37,2013-07-02 13:33:00,
2013-07-02 09:38:00,75.4,71.9,21.55,West,273,0.0,0.0,89,0.00,CLR,,0.50,WeatherDisplay:10.37,2013-07-02 13:38:00,
2013-07-02 09:43:00,76.7,72.5,21.55,West,272,0.0,0.0,87,0.00,CLR,,0.50,WeatherDisplay:10.37,2013-07-02 13:43:00,
2013-07-02 09:48:00,78.2,73.3,21.55,West,273,0.0,0.0,85,0.00,CLR,,0.50,WeatherDisplay:10.37,2013-07-02 13:48:00,
2013-07-02 09:53:00,79.8,73.8,21.55,West,273,0.0,0.0,82,0.00,CLR,,0.50,WeatherDisplay:10.37,2013-07-02 13:53:00,
2013-07-02 09:58:00,80.8,73.7,21.55,West,273,1.2,1.2,79,0.00,CLR,,0.50,WeatherDisplay:10.37,2013-07-02 13:58:00,
2013-07-02 10:03:00,81.6,73.7,21.55,West,273,1.2,1.2,77,0.00,CLR,,0.50,WeatherDisplay:10.37,2013-07-02 14:03:00,
2013-07-02 10:08:00,82.7,74.0,21.55,SW,225,2.3,2.3,75,0.00,CLR,,0.50,WeatherDisplay:10.37,2013-07-02 14:08:00,
2013-07-02 10:14:00,83.3,74.5,21.55,SW,226,0.0,0.0,75,0.00,CLR,,0.50,WeatherDisplay:10.37,2013-07-02 14:14:00,
2013-07-02 10:19:00,84.2,75.0,21.55,SW,229,5.0,5.0,74,0.00,CLR,,0.50,WeatherDisplay:10.37,2013-07-02 14:19:00,
2013-07-02 10:24:00,84.8,73.9,21.55,SW,234,4.6,5.0,70,0.00,CLR,,0.50,WeatherDisplay:10.37,2013-07-02 14:24:00,
2013-07-02 10:29:00,83.4,73.0,21.55,SSW,194,6.9,6.9,71,0.00,CLR,,0.50,WeatherDisplay:10.37,2013-07-02 14:29:00,
2013-07-02 10:34:00,81.3,72.2,21.55,SSW,200,8.1,8.1,74,0.00,CLR,,0.50,WeatherDisplay:10.37,2013-07-02 14:34:00,
2013-07-02 10:39:00,80.3,72.4,21.55,SW,233,3.5,3.5,77,0.00,CLR,,0.50,WeatherDisplay:10.37,2013-07-02 14:39:00,
2013-07-02 10:44:00,80.5,72.6,21.55,SW,217,3.5,3.5,77,0.00,CLR,,0.50,WeatherDisplay:10.37,2013-07-02 14:44:00,
2013-07-02 10:49:00,80.9,72.6,21.55,SW,215,5.8,5.8,76,0.00,CLR,,0.50,WeatherDisplay:10.37,2013-07-02 14:49:00,
2013-07-02 10:54:00,81.3,72.6,21.55,WNW,284,9.2,9.2,75,0.00,CLR,,0.50,WeatherDisplay:10.37,2013-07-02 14:54:00,
2013-07-02 10:59:00,82.1,73.0,21.55,South,186,4.6,4.6,74,0.00,CLR,,0.50,WeatherDisplay:10.37,2013-07-02 14:59:00,
2013-07-02 11:04:00,82.0,73.3,21.55,WSW,240,6.9,6.9,75,0.00,CLR,,0.50,WeatherDisplay:10.37,2013-07-02 15:04:00,
2013-07-02 11:09:00,82.8,72.4,21.55,SW,223,9.2,9.2,71,0.00,CLR,,0.50,WeatherDisplay:10.37,2013-07-02 15:09:00,
2013-07-02 11:14:00,82.0,71.7,21.55,WSW,237,8.1,8.1,71,0.00,CLR,,0.50,WeatherDisplay:10.37,2013-07-02 15:14:00,
2013-07-02 11:19:00,81.4,71.9,21.55,SSW,198,9.2,9.2,73,0.00,CLR,,0.50,WeatherDisplay:10.37,2013-07-02 15:19:00,
2013-07-02 11:24:00,82.1,72.6,21.55,SW,222,6.9,6.9,73,0.00,CLR,,0.50,WeatherDisplay:10.37,2013-07-02 15:24:00,
2013-07-02 11:29:00,82.6,72.2,21.55,WNW,302,8.1,8.1,71,0.00,CLR,,0.50,WeatherDisplay:10.37,2013-07-02 15:29:00,
2013-07-02 11:34:00,82.4,72.0,21.55,SSW,203,6.9,6.9,71,0.00,CLR,,0.50,WeatherDisplay:10.37,2013-07-02 15:34:00,
2013-07-02 11:39:00,83.0,72.6,21.55,SW,230,7.0,7.0,71,0.00,CLR,,0.50,WeatherDisplay:10.37,2013-07-02 15:39:00,
2013-07-02 11:44:00,83.8,72.5,21.55,WSW,245,6.9,6.9,69,0.00,CLR,,0.50,WeatherDisplay:10.37,2013-07-02 15:44:00,
2013-07-02 11:49:00,85.3,73.5,21.55,WSW,242,5.8,5.8,68,0.00,CLR,,0.50,WeatherDisplay:10.37,2013-07-02 15:49:00,
2013-07-02 11:54:00,85.5,71.9,21.55,West,273,9.2,9.2,64,0.00,CLR,,0.50,WeatherDisplay:10.37,2013-07-02 15:54:00,
2013-07-02 11:59:00,85.1,72.5,21.55,WSW,242,8.0,8.0,66,0.00,CLR,,0.50,WeatherDisplay:10.37,2013-07-02 15:59:00,
2013-07-02 12:04:00,84.4,71.3,21.55,SSW,213,11.5,11.5,65,0.00,CLR,,0.50,WeatherDisplay:10.37,2013-07-02 16:04:00,
2013-07-02 12:09:00,83.9,72.2,21.55,West,273,8.0,8.0,68,0.00,CLR,,0.50,WeatherDisplay:10.37,2013-07-02 16:09:00,
2013-07-02 12:14:00,84.6,72.0,21.55,WNW,292,9.2,9.2,66,0.00,CLR,,0.50,WeatherDisplay:10.37,2013-07-02 16:14:00,
2013-07-02 12:19:00,85.3,72.2,21.55,West,281,4.6,4.6,65,0.00,CLR,,0.50,WeatherDisplay:10.37,2013-07-02 16:19:00,
2013-07-02 12:24:00,85.1,72.0,21.55,SW,234,8.1,8.1,65,0.00,CLR,,0.50,WeatherDisplay:10.37,2013-07-02 16:24:00,
2013-07-02 12:29:00,84.1,71.5,21.55,WSW,242,4.0,4.0,66,0.00,CLR,,0.50,WeatherDisplay:10.37,2013-07-02 16:29:00,
2013-07-02 12:34:00,83.3,71.6,21.55,SW,219,4.6,4.6,68,0.00,CLR,,0.50,WeatherDisplay:10.37,2013-07-02 16:34:00,
2013-07-02 12:39:00,82.2,70.1,21.55,SW,225,8.1,8.1,67,0.00,CLR,,0.50,WeatherDisplay:10.37,2013-07-02 16:39:00,
2013-07-02 12:44:00,81.2,70.5,21.55,WSW,249,5.0,5.0,70,0.00,CLR,,0.50,WeatherDisplay:10.37,2013-07-02 16:44:00,
2013-07-02 12:49:00,81.1,70.8,21.55,WSW,257,5.8,5.8,71,0.00,CLR,,0.50,WeatherDisplay:10.37,2013-07-02 16:49:00,
2013-07-02 12:54:00,80.9,70.6,21.55,West,265,5.8,5.8,71,0.00,CLR,,0.50,WeatherDisplay:10.37,2013-07-02 16:54:00,
2013-07-02 12:59:00,80.8,70.9,21.55,WSW,244,8.1,8.1,72,0.00,CLR,,0.50,WeatherDisplay:10.37,2013-07-02 16:59:00,
2013-07-02 13:04:00,80.9,71.4,21.55,SW,226,4.6,4.6,73,0.00,CLR,,0.50,WeatherDisplay:10.37,2013-07-02 17:04:00,
2013-07-02 13:09:00,81.4,71.9,21.55,SW,229,4.6,4.6,73,0.00,CLR,,0.50,WeatherDisplay:10.37,2013-07-02 17:09:00,
2013-07-02 13:14:00,82.2,72.3,21.55,SSW,205,5.0,5.0,72,0.00,CLR,,0.50,WeatherDisplay:10.37,2013-07-02 17:14:00,
2013-07-02 13:19:00,82.9,72.1,21.55,WNW,302,8.1,8.1,70,0.00,CLR,,0.50,WeatherDisplay:10.37,2013-07-02 17:19:00,
2013-07-02 13:24:00,84.0,72.3,21.55,SW,232,5.8,5.8,68,0.00,CLR,,0.50,WeatherDisplay:10.37,2013-07-02 17:24:00,
2013-07-02 13:29:00,84.3,72.1,21.55,SW,225,3.5,3.5,67,0.00,CLR,,0.50,WeatherDisplay:10.37,2013-07-02 17:29:00,
2013-07-02 13:34:00,84.5,71.4,21.55,WSW,242,6.9,6.9,65,0.00,CLR,,0.50,WeatherDisplay:10.37,2013-07-02 17:34:00,
2013-07-02 13:39:00,84.2,71.6,21.55,SW,221,6.9,6.9,66,0.00,CLR,,0.50,WeatherDisplay:10.37,2013-07-02 17:39:00,
2013-07-02 13:44:00,83.3,70.8,21.55,WSW,246,9.2,9.2,66,0.00,CLR,,0.50,WeatherDisplay:10.37,2013-07-02 17:44:00,
2013-07-02 13:49:00,82.8,70.7,21.55,SW,219,4.6,4.6,67,0.00,CLR,,0.50,WeatherDisplay:10.37,2013-07-02 17:49:00,
2013-07-02 13:54:00,82.4,70.8,21.55,SW,236,6.0,6.4,68,0.00,CLR,,0.50,WeatherDisplay:10.37,2013-07-02 17:54:00,
2013-07-02 13:59:00,82.0,70.4,21.55,SW,235,5.8,5.8,68,0.00,CLR,,0.50,WeatherDisplay:10.37,2013-07-02 17:59:00,
2013-07-02 14:04:00,82.1,70.9,21.55,SW,232,8.0,8.0,69,0.00,CLR,,0.50,WeatherDisplay:10.37,2013-07-02 18:04:00,
2013-07-02 14:09:00,82.3,71.5,21.55,West,274,4.6,4.6,70,0.00,CLR,,0.50,WeatherDisplay:10.37,2013-07-02 18:09:00,
2013-07-02 14:14:00,82.3,70.7,21.55,WSW,245,6.9,6.9,68,0.00,CLR,,0.50,WeatherDisplay:10.37,2013-07-02 18:14:00,
2013-07-02 14:19:00,82.5,70.9,21.55,SW,230,6.9,6.9,68,0.00,CLR,,0.50,WeatherDisplay:10.37,2013-07-02 18:19:00,
2013-07-02 14:24:00,82.5,71.3,21.55,WSW,238,5.8,5.8,69,0.00,CLR,,0.50,WeatherDisplay:10.37,2013-07-02 18:24:00,
2013-07-02 14:29:00,82.3,70.7,21.55,SW,228,6.9,6.9,68,0.00,CLR,,0.50,WeatherDisplay:10.37,2013-07-02 18:29:00,
2013-07-02 14:34:00,81.6,71.3,21.55,WSW,254,5.8,5.8,71,0.00,CLR,,0.50,WeatherDisplay:10.37,2013-07-02 18:34:00,
2013-07-02 14:39:00,81.9,71.2,21.55,WSW,238,5.8,5.8,70,0.00,CLR,,0.50,WeatherDisplay:10.37,2013-07-02 18:39:00,
2013-07-02 14:44:00,82.7,71.9,21.55,WSW,239,3.5,3.5,70,0.00,CLR,,0.50,WeatherDisplay:10.37,2013-07-02 18:44:00,
2013-07-02 14:49:00,83.8,73.0,21.55,WNW,283,6.0,6.0,70,0.00,CLR,,0.50,WeatherDisplay:10.37,2013-07-02 18:49:00,
2013-07-02 14:54:00,85.3,71.7,21.55,SW,219,5.8,5.8,64,0.00,CLR,,0.50,WeatherDisplay:10.37,2013-07-02 18:54:00,
2013-07-02 14:59:00,85.7,72.6,21.55,SSW,211,8.1,8.1,65,0.00,CLR,,0.50,WeatherDisplay:10.37,2013-07-02 18:59:00,
2013-07-02 15:00:00,85.7,72.6,21.55,SSW,212,5.8,5.8,65,0.00,CLR,,0.50,WeatherDisplay:10.37,2013-07-02 19:00:00,
2013-07-02 15:05:00,85.6,72.0,21.55,SSW,194,6.9,6.9,64,0.00,CLR,,0.50,WeatherDisplay:10.37,2013-07-02 19:05:00,
2013-07-02 15:10:00,85.0,70.5,21.55,SW,224,4.6,4.6,62,0.00,CLR,,0.50,WeatherDisplay:10.37,2013-07-02 19:10:00,
2013-07-02 15:15:00,84.3,69.4,21.55,South,187,4.6,4.6,61,0.00,CLR,,0.50,WeatherDisplay:10.37,2013-07-02 19:15:00,
2013-07-02 15:20:00,83.5,70.0,21.55,SW,223,5.8,5.8,64,0.00,CLR,,0.50,WeatherDisplay:10.37,2013-07-02 19:20:00,
2013-07-02 15:25:00,83.8,69.9,21.55,WSW,241,6.9,6.9,63,0.00,CLR,,0.50,WeatherDisplay:10.37,2013-07-02 19:25:00,
2013-07-02 15:30:00,84.3,69.9,21.55,West,277,7.0,7.0,62,0.00,CLR,,0.50,WeatherDisplay:10.37,2013-07-02 19:30:00,
2013-07-02 15:35:00,84.9,71.4,21.55,West,275,5.8,5.8,64,0.00,CLR,,0.50,WeatherDisplay:10.37,2013-07-02 19:35:00,
2013-07-02 15:40:00,85.1,70.6,21.55,WSW,237,5.8,5.8,62,0.00,CLR,,0.50,WeatherDisplay:10.37,2013-07-02 19:40:00,
2013-07-02 15:45:00,85.6,71.6,21.55,WSW,250,5.8,5.8,63,0.00,CLR,,0.50,WeatherDisplay:10.37,2013-07-02 19:45:00,
2013-07-02 15:50:00,85.8,71.3,21.55,WNW,283,9.2,9.2,62,0.00,CLR,,0.50,WeatherDisplay:10.37,2013-07-02 19:50:00,
2013-07-02 15:55:00,86.3,71.7,21.55,West,280,7.0,7.0,62,0.00,CLR,,0.50,WeatherDisplay:10.37,2013-07-02 19:55:00,
2013-07-02 16:00:00,87.2,72.1,21.55,West,273,0.0,0.0,61,0.00,CLR,,0.50,WeatherDisplay:10.37,2013-07-02 20:00:00,
2013-07-02 16:05:00,87.9,70.8,21.55,SW,222,8.1,8.1,57,0.00,CLR,,0.50,WeatherDisplay:10.37,2013-07-02 20:05:00,
2013-07-02 16:10:00,87.3,70.7,21.55,SSW,212,6.9,6.9,58,0.00,CLR,,0.50,WeatherDisplay:10.37,2013-07-02 20:10:00,
2013-07-02 16:15:00,86.6,71.1,21.55,SW,231,3.5,0.0,60,0.00,CLR,,0.50,WeatherDisplay:10.37,2013-07-02 20:15:00,
2013-07-02 16:20:00,86.7,71.2,21.55,West,276,4.6,4.6,60,0.00,CLR,,0.50,WeatherDisplay:10.37,2013-07-02 20:20:00,
2013-07-02 16:25:00,87.1,71.5,21.55,SW,229,5.0,5.0,60,0.00,CLR,,0.50,WeatherDisplay:10.37,2013-07-02 20:25:00,
2013-07-02 16:30:00,87.0,70.9,21.55,SW,234,5.8,5.8,59,0.00,CLR,,0.50,WeatherDisplay:10.37,2013-07-02 20:30:00,
2013-07-02 16:35:00,87.2,72.1,21.55,West,279,3.5,3.5,61,0.00,CLR,,0.50,WeatherDisplay:10.37,2013-07-02 20:35:00,
2013-07-02 16:40:00,87.8,73.2,21.55,West,277,4.6,4.6,62,0.00,CLR,,0.50,WeatherDisplay:10.37,2013-07-02 20:40:00,
2013-07-02 16:45:00,88.2,73.0,21.55,West,279,3.5,3.5,61,0.00,CLR,,0.50,WeatherDisplay:10.37,2013-07-02 20:45:00,
2013-07-02 16:50:00,88.2,72.1,21.55,SW,214,5.8,5.8,59,0.00,CLR,,0.50,WeatherDisplay:10.37,2013-07-02 20:50:00,
2013-07-02 16:55:00,87.1,71.0,21.55,SW,216,0.0,0.0,59,0.00,CLR,,0.50,WeatherDisplay:10.37,2013-07-02 20:55:00,
2013-07-02 17:00:00,86.7,71.6,21.55,West,275,5.8,5.8,61,0.00,CLR,,0.50,WeatherDisplay:10.37,2013-07-02 21:00:00,
2013-07-02 17:05:00,87.0,72.4,21.55,West,279,1.2,1.2,62,0.00,CLR,,0.50,WeatherDisplay:10.37,2013-07-02 21:05:00,
2013-07-02 17:10:00,87.4,72.8,21.55,West,280,2.3,2.3,62,0.00,CLR,,0.50,WeatherDisplay:10.37,2013-07-02 21:10:00,
2013-07-02 17:15:00,88.0,71.9,21.55,West,280,0.0,0.0,59,0.00,CLR,,0.50,WeatherDisplay:10.37,2013-07-02 21:15:00,
2013-07-02 17:20:00,88.7,72.0,21.55,West,279,0.0,0.0,58,0.00,CLR,,0.50,WeatherDisplay:10.37,2013-07-02 21:20:00,
2013-07-02 17:25:00,89.0,72.3,21.55,West,279,0.0,0.0,58,0.00,CLR,,0.50,WeatherDisplay:10.37,2013-07-02 21:25:00,
2013-07-02 17:30:00,87.8,70.1,21.55,SW,234,3.0,3.0,56,0.00,CLR,,0.50,WeatherDisplay:10.37,2013-07-02 21:30:00,
2013-07-02 17:35:00,86.7,71.2,21.55,SW,236,2.3,2.3,60,0.00,CLR,,0.50,WeatherDisplay:10.37,2013-07-02 21:35:00,
2013-07-02 17:40:00,86.6,71.1,21.55,WSW,238,2.3,0.0,60,0.00,CLR,,0.50,WeatherDisplay:10.37,2013-07-02 21:40:00,
2013-07-02 17:45:00,86.5,71.5,21.55,WSW,245,4.6,4.6,61,0.00,CLR,,0.50,WeatherDisplay:10.37,2013-07-02 21:45:00,
2013-07-02 17:50:00,86.1,71.1,21.55,WSW,242,3.0,3.0,61,0.00,CLR,,0.50,WeatherDisplay:10.37,2013-07-02 21:50:00,
2013-07-02 17:55:00,85.5,71.5,21.55,SW,234,0.0,0.0,63,0.00,CLR,,0.50,WeatherDisplay:10.37,2013-07-02 21:55:00,
2013-07-02 18:00:00,85.8,71.7,21.55,West,277,6.9,6.9,63,0.00,CLR,,0.50,WeatherDisplay:10.37,2013-07-02 22:00:00,
2013-07-02 18:05:00,86.0,71.5,21.55,SW,233,2.0,2.1,62,0.00,CLR,,0.50,WeatherDisplay:10.37,2013-07-02 22:05:00,
2013-07-02 18:10:00,85.4,70.4,21.55,SW,227,3.5,3.5,61,0.00,CLR,,0.50,WeatherDisplay:10.37,2013-07-02 22:10:00,
2013-07-02 18:15:00,84.7,70.7,21.55,SW,227,0.0,0.0,63,0.00,CLR,,0.50,WeatherDisplay:10.37,2013-07-02 22:15:00,
2013-07-02 18:20:00,84.4,70.9,21.55,SW,227,3.5,0.0,64,0.00,CLR,,0.50,WeatherDisplay:10.37,2013-07-02 22:20:00,
2013-07-02 18:25:00,83.9,70.9,21.55,SW,217,3.5,0.0,65,0.00,CLR,,0.50,WeatherDisplay:10.37,2013-07-02 22:25:00,
2013-07-02 18:30:00,83.6,70.6,21.55,SW,217,0.0,0.0,65,0.00,CLR,,0.50,WeatherDisplay:10.37,2013-07-02 22:30:00,
2013-07-02 18:35:00,83.5,70.5,21.55,SW,217,0.0,0.0,65,0.00,CLR,,0.50,WeatherDisplay:10.37,2013-07-02 22:35:00,
2013-07-02 18:40:00,83.4,70.4,21.55,SW,217,3.5,3.5,65,0.00,CLR,,0.50,WeatherDisplay:10.37,2013-07-02 22:40:00,
2013-07-02 18:45:00,83.4,70.8,21.55,SW,218,3.0,3.0,66,0.00,CLR,,0.50,WeatherDisplay:10.37,2013-07-02 22:45:00,
2013-07-02 18:50:00,83.6,71.0,21.55,WSW,239,0.0,0.0,66,0.00,CLR,,0.50,WeatherDisplay:10.37,2013-07-02 22:50:00,
2013-07-02 18:55:00,83.7,70.7,21.55,WSW,239,3.5,3.5,65,0.00,CLR,,0.50,WeatherDisplay:10.37,2013-07-02 22:55:00,
2013-07-02 19:00:00,83.9,70.9,21.55,WSW,239,0.0,0.0,65,0.00,CLR,,0.50,WeatherDisplay:10.37,2013-07-02 23:00:00,
2013-07-02 19:05:00,83.8,70.8,21.55,WSW,239,3.5,3.5,65,0.00,CLR,,0.50,WeatherDisplay:10.37,2013-07-02 23:05:00,
2013-07-02 19:10:00,83.6,70.6,21.55,WSW,239,0.0,0.0,65,0.00,CLR,,0.50,WeatherDisplay:10.37,2013-07-02 23:10:00,
2013-07-02 19:15:00,83.5,70.9,21.55,WSW,239,0.0,0.0,66,0.00,CLR,,0.50,WeatherDisplay:10.37,2013-07-02 23:15:00,
2013-07-02 19:20:00,83.4,70.4,21.55,WSW,238,0.0,0.0,65,0.00,CLR,,0.50,WeatherDisplay:10.37,2013-07-02 23:20:00,
2013-07-02 19:25:00,83.4,72.2,21.55,WSW,239,0.0,0.0,69,0.00,CLR,,0.50,WeatherDisplay:10.37,2013-07-02 23:25:00,
2013-07-02 19:29:00,83.4,73.4,21.55,WSW,239,0.0,0.0,72,0.00,CLR,,0.50,WeatherDisplay:10.37,2013-07-02 23:29:00,
2013-07-02 19:34:00,82.9,73.8,21.55,WSW,238,0.0,0.0,74,0.00,CLR,,0.50,WeatherDisplay:10.37,2013-07-02 23:34:00,
2013-07-02 19:39:00,82.3,74.0,21.55,WSW,239,0.0,0.0,76,0.00,CLR,,0.50,WeatherDisplay:10.37,2013-07-02 23:39:00,
2013-07-02 19:44:00,81.7,74.2,21.55,WSW,239,0.0,0.0,78,0.00,CLR,,0.50,WeatherDisplay:10.37,2013-07-02 23:44:00,
2013-07-02 19:49:00,80.9,74.1,21.55,WSW,238,0.0,0.0,80,0.00,CLR,,0.50,WeatherDisplay:10.37,2013-07-02 23:49:00,
2013-07-02 19:54:00,80.0,73.6,21.55,WSW,239,0.0,0.0,81,0.00,CLR,,0.50,WeatherDisplay:10.37,2013-07-02 23:54:00,
2013-07-02 19:59:00,79.2,73.6,21.55,WSW,238,0.0,0.0,83,0.00,CLR,,0.50,WeatherDisplay:10.37,2013-07-02 23:59:00,
2013-07-02 20:01:00,79.0,73.4,21.55,WSW,239,0.0,0.0,83,0.00,CLR,,0.50,WeatherDisplay:10.37,2013-07-03 00:01:00,
2013-07-02 20:06:00,78.8,73.2,21.55,WSW,239,0.0,0.0,83,0.00,CLR,,0.50,WeatherDisplay:10.37,2013-07-03 00:06:00,
2013-07-02 20:11:00,78.6,73.4,21.55,WSW,239,0.0,0.0,84,0.00,CLR,,0.50,WeatherDisplay:10.37,2013-07-03 00:11:00,
2013-07-02 20:16:00,78.4,73.2,21.55,WSW,239,0.0,0.0,84,0.00,CLR,,0.50,WeatherDisplay:10.37,2013-07-03 00:16:00,
2013-07-02 20:21:00,78.2,73.0,21.55,WSW,239,0.0,0.0,84,0.00,CLR,,0.50,WeatherDisplay:10.37,2013-07-03 00:21:00,
2013-07-02 20:23:00,78.2,73.3,21.55,WSW,238,0.0,0.0,85,0.00,CLR,,0.50,WeatherDisplay:10.37,2013-07-03 00:23:00,
2013-07-02 20:24:00,78.2,73.3,21.55,WSW,239,0.0,0.0,85,0.00,CLR,,0.50,WeatherDisplay:10.37,2013-07-03 00:24:00,
2013-07-02 20:28:00,78.1,73.2,21.55,WSW,239,0.0,0.0,85,0.00,CLR,,0.50,WeatherDisplay:10.37,2013-07-03 00:28:00,
2013-07-02 20:33:00,77.8,72.9,21.55,WSW,238,0.0,0.0,85,0.00,CLR,,0.50,WeatherDisplay:10.37,2013-07-03 00:33:00,
2013-07-02 20:38:00,77.5,73.0,21.55,WSW,238,0.0,0.0,86,0.00,CLR,,0.50,WeatherDisplay:10.37,2013-07-03 00:38:00,
2013-07-02 20:43:00,77.4,72.9,21.55,WSW,239,0.0,0.0,86,0.00,CLR,,0.50,WeatherDisplay:10.37,2013-07-03 00:43:00,
2013-07-02 20:48:00,77.3,73.1,21.55,WSW,238,0.0,0.0,87,0.00,CLR,,0.50,WeatherDisplay:10.37,2013-07-03 00:48:00,
2013-07-02 20:53:00,77.1,72.9,21.55,WSW,238,0.0,0.0,87,0.00,CLR,,0.50,WeatherDisplay:10.37,2013-07-03 00:53:00,
2013-07-02 20:58:00,77.1,72.9,21.55,WSW,239,0.0,0.0,87,0.00,CLR,,0.50,WeatherDisplay:10.37,2013-07-03 00:58:00,
2013-07-02 21:00:00,77.0,72.8,21.55,WSW,239,0.0,0.0,87,0.00,CLR,,0.50,WeatherDisplay:10.37,2013-07-03 01:00:00,
2013-07-02 21:03:00,76.9,72.7,21.55,WSW,239,1.2,1.2,87,0.00,CLR,,0.50,WeatherDisplay:10.37,2013-07-03 01:03:00,
2013-07-02 21:08:00,76.7,72.5,21.55,WSW,238,0.0,0.0,87,0.00,CLR,,0.50,WeatherDisplay:10.37,2013-07-03 01:08:00,
2013-07-02 21:09:00,76.6,72.8,21.55,WSW,239,0.0,0.0,88,0.00,CLR,,0.50,WeatherDisplay:10.37,2013-07-03 01:09:00,
2013-07-02 21:14:00,76.3,72.5,21.55,WSW,239,0.0,0.0,88,0.00,CLR,,0.50,WeatherDisplay:10.37,2013-07-03 01:14:00,
2013-07-02 21:19:00,76.2,72.4,21.55,WSW,238,0.0,0.0,88,0.00,CLR,,0.50,WeatherDisplay:10.37,2013-07-03 01:19:00,
2013-07-02 21:24:00,76.1,72.6,21.55,WSW,239,0.0,0.0,89,0.00,CLR,,0.50,WeatherDisplay:10.37,2013-07-03 01:24:00,
2013-07-02 21:26:00,76.1,72.6,21.55,WSW,238,0.0,0.0,89,0.00,CLR,,0.50,WeatherDisplay:10.37,2013-07-03 01:26:00,
2013-07-02 21:31:00,75.9,72.4,21.55,WSW,239,0.0,0.0,89,0.00,CLR,,0.50,WeatherDisplay:10.37,2013-07-03 01:31:00,
2013-07-02 21:36:00,75.6,72.5,21.55,WSW,238,0.0,0.0,90,0.00,CLR,,0.50,WeatherDisplay:10.37,2013-07-03 01:36:00,
2013-07-02 21:41:00,75.5,72.4,21.55,WSW,238,0.0,0.0,90,0.00,CLR,,0.50,WeatherDisplay:10.37,2013-07-03 01:41:00,
2013-07-02 21:46:00,75.3,72.2,21.55,WSW,238,0.0,0.0,90,0.00,CLR,,0.50,WeatherDisplay:10.37,2013-07-03 01:46:00,
2013-07-02 21:51:00,75.3,72.2,21.55,WSW,238,0.0,0.0,90,0.00,CLR,,0.50,WeatherDisplay:10.37,2013-07-03 01:51:00,
2013-07-02 21:57:00,75.3,72.2,21.55,WSW,239,0.0,0.0,90,0.00,CLR,,0.50,WeatherDisplay:10.37,2013-07-03 01:57:00,
2013-07-02 22:02:00,75.3,72.2,21.55,WSW,239,0.0,0.0,90,0.00,CLR,,0.50,WeatherDisplay:10.37,2013-07-03 02:02:00,
2013-07-02 22:08:00,75.3,72.2,21.55,WSW,238,0.0,0.0,90,0.00,CLR,,0.50,WeatherDisplay:10.37,2013-07-03 02:08:00,
2013-07-02 22:13:00,75.0,71.9,21.55,WSW,239,0.0,0.0,90,0.00,CLR,,0.50,WeatherDisplay:10.37,2013-07-03 02:13:00,
2013-07-02 22:18:00,74.8,72.0,21.55,WSW,239,0.0,0.0,91,0.00,CLR,,0.50,WeatherDisplay:10.37,2013-07-03 02:18:00,
2013-07-02 22:23:00,74.7,71.9,21.55,WSW,239,0.0,0.0,91,0.00,CLR,,0.50,WeatherDisplay:10.37,2013-07-03 02:23:00,
2013-07-02 22:29:00,74.7,71.9,21.55,WSW,238,0.0,0.0,91,0.00,CLR,,0.50,WeatherDisplay:10.37,2013-07-03 02:29:00,
2013-07-02 22:32:00,74.7,71.9,21.55,WSW,238,0.0,0.0,91,0.00,CLR,,0.50,WeatherDisplay:10.37,2013-07-03 02:32:00,
2013-07-02 22:37:00,74.7,71.9,21.55,WSW,239,0.0,0.0,91,0.00,CLR,,0.50,WeatherDisplay:10.37,2013-07-03 02:37:00,
2013-07-02 22:43:00,74.7,71.6,21.55,WSW,239,0.0,0.0,90,0.00,CLR,,0.50,WeatherDisplay:10.37,2013-07-03 02:43:00,
2013-07-02 22:48:00,74.8,71.7,21.55,WSW,239,0.0,0.0,90,0.00,CLR,,0.50,WeatherDisplay:10.37,2013-07-03 02:48:00,
2013-07-02 22:53:00,74.8,71.7,21.55,WSW,238,0.0,0.0,90,0.00,CLR,,0.50,WeatherDisplay:10.37,2013-07-03 02:53:00,
2013-07-02 22:59:00,74.9,71.4,21.55,WSW,239,0.0,0.0,89,0.00,CLR,,0.50,WeatherDisplay:10.37,2013-07-03 02:59:00,
2013-07-02 23:02:00,74.9,71.4,21.55,WSW,238,0.0,0.0,89,0.00,CLR,,0.50,WeatherDisplay:10.37,2013-07-03 03:02:00,
2013-07-02 23:08:00,74.8,71.7,21.55,WSW,239,0.0,0.0,90,0.00,CLR,,0.50,WeatherDisplay:10.37,2013-07-03 03:08:00,
2013-07-02 23:13:00,74.7,71.2,21.55,WSW,239,0.0,0.0,89,0.00,CLR,,0.50,WeatherDisplay:10.37,2013-07-03 03:13:00,
2013-07-02 23:18:00,74.5,71.0,21.55,WSW,239,0.0,0.0,89,0.00,CLR,,0.50,WeatherDisplay:10.37,2013-07-03 03:18:00,
2013-07-02 23:20:00,74.4,71.3,31.40,WSW,239,0.0,0.0,90,0.00,CLR,,0.50,WeatherDisplay:10.37,2013-07-03 03:20:00,
2013-07-02 23:25:00,74.0,70.9,21.55,WSW,239,0.0,0.0,90,0.00,CLR,,0.50,WeatherDisplay:10.37,2013-07-03 03:25:00,
2013-07-02 23:30:00,73.7,70.9,21.55,WSW,238,0.0,0.0,91,0.00,CLR,,0.50,WeatherDisplay:10.37,2013-07-03 03:30:00,
2013-07-02 23:35:00,73.3,70.5,21.55,WSW,238,0.0,0.0,91,0.00,CLR,,0.50,WeatherDisplay:10.37,2013-07-03 03:35:00,
2013-07-02 23:39:00,73.1,70.6,21.55,WSW,238,0.0,0.0,92,0.00,CLR,,0.50,WeatherDisplay:10.37,2013-07-03 03:39:00,
2013-07-02 23:44:00,73.0,70.5,21.55,WSW,238,0.0,0.0,92,0.00,CLR,,0.50,WeatherDisplay:10.37,2013-07-03 03:44:00,
2013-07-02 23:49:00,72.9,70.4,21.55,WSW,239,0.0,0.0,92,0.00,CLR,,0.50,WeatherDisplay:10.37,2013-07-03 03:49:00,
2013-07-02 23:54:00,72.9,70.4,21.55,WSW,239,0.0,0.0,92,0.00,CLR,,0.50,WeatherDisplay:10.37,2013-07-03 03:54:00,
2013-07-02 23:59:00,72.7,70.2,21.55,WSW,239,0.0,0.0,92,0.00,CLR,,0.50,WeatherDisplay:10.37,2013-07-03 03:59:00,